Vertical_Velocity
-5 -4 -1 5 2 3 -1 1 5 0 5 -1 -5 4 -4 -7 11 75 49 14 13 1
3 1 5 7 5 8 1 8 5 3 0 -0 -6 3 4 -1 -6 6 5 35 -11 52
-4 -4 -0 2 2 5 4 2 4 -0 -4 3 0 1 5 -3 -2 -6 8 -1 0 -2
-3 -2 2 2 1 1 8 1 -8 -6 -1 0 -1 1 3 4 1 -1 -5 36 -1 -2
3 2 5 3 2 -0 -2 2 1 -2 6 -8 -19 -4 -12 -3 0 3 34 37 -4 -3
-1 -8 -4 -0 -1 -3 -2 -0 -3 -2 -5 -6 -3 10 -2 19 -8 -2 6 -0 3 3
-0 -0 -0 -3 -1 -2 -1 -1 -0 -0 -0 -2 -2 -1 -6 1 4 7 -1 -17 -14 -5
-1 4 -0 5 -1 -3 1 2 -2 -0 1 1 -0 -6 -2 -11 -10 -3 -13 13 13 5
4 -2 -1 0 2 0 -0 2 2 -3 -7 -9 -2 4 13 4 -9 17 -14 -11 -18 -21
-1 -1 0 4 6 0 -0 11 -1 8 13 6 24 20 8 26 -26 37 0 -9 -22 109
5 1 0 2 4 2 5 5 -8 22 14 17 16 27 16 12 8 62 1 22 89 -14
-1 3 2 4 5 10 3 0 0 3 -2 -0 13 -5 29 22 2 27 14 59 -13 -3
-2 -3 -3 2 2 2 5 7 7 6 1 5 2 6 -10 -1 4 10 -13 2 29 68
-1 -1 -1 -3 -5 -6 -2 -3 1 6 5 5 2 4 3 5 1 4 18 6 6 1
Height
5600 5603 5607 5610 5614 5619 5626 5632 5636 5642 5648 5656 5663 5669 5671 5676 5676 5675 5673 5686 5691 5697
5584 5586 5590 5592 5596 5601 5606 5612 5616 5621 5627 5636 5645 5652 5656 5663 5665 5665 5670 5676 5676 5673
5569 5571 5574 5576 5579 5583 5587 5593 5597 5602 5608 5615 5626 5634 5639 5647 5651 5655 5660 5666 5669 5673
5558 5562 5566 5568 5569 5570 5572 5572 5574 5579 5587 5594 5607 5617 5624 5631 5633 5640 5647 5649 5656 5666
5552 5555 5559 5560 5560 5558 5557 5556 5559 5563 5570 5573 5584 5596 5607 5617 5618 5620 5632 5639 5648 5654
5547 5552 5554 5551 5548 5547 5545 5543 5541 5545 5551 5558 5569 5580 5590 5602 5609 5617 5624 5626 5636 5643
5545 5546 5546 5545 5543 5540 5537 5532 5530 5532 5537 5546 5556 5565 5575 5589 5596 5605 5611 5614 5621 5626
5538 5540 5542 5540 5539 5537 5535 5532 5531 5530 5532 5538 5546 5551 5560 5575 5585 5594 5598 5597 5608 5616
5538 5539 5536 5537 5537 5536 5535 5534 5532 5534 5534 5538 5542 5549 5557 5566 5578 5582 5589 5597 5602 5606
5540 5539 5539 5538 5536 5536 5534 5532 5532 5533 5533 5534 5543 5548 5553 5558 5569 5568 5575 5585 5590 5577
5543 5540 5537 5536 5536 5535 5534 5534 5535 5536 5536 5540 5546 5547 5551 5557 5560 5559 5567 5573 5574 5577
5544 5542 5540 5539 5536 5535 5536 5534 5535 5536 5538 5538 5535 5540 5546 5546 5547 5554 5556 5563 5567 5569
5546 5543 5542 5541 5539 5538 5536 5536 5536 5535 5534 5536 5539 5541 5542 5544 5544 5545 5549 5550 5550 5555
5551 5548 5546 5543 5541 5539 5537 5536 5535 5535 5535 5535 5535 5536 5537 5539 5540 5538 5540 5542 5545 5546